Weather History for Crestview, FL

Change the Weather History Date:

Sunday, February 3, 2013

  Actual Average Record
Temperature  
Mean Temperature 54 °F -  
Max Temperature 66 °F - - ()
Min Temperature 41 °F - - ()
Degree Days  
Heating Degree Days 12    
Growing Degree Days 4 (Base 50)    
Moisture  
Dew Point 40 °F    
Average Humidity 72    
Maximum Humidity 100    
Minimum Humidity 25    
Precipitation  
Precipitation 0.05 in - - ()
Sea Level Pressure  
Sea Level Pressure 30.18 in    
Wind  
Wind Speed 4 mph (NW)    
Max Wind Speed 13 mph    
Max Gust Speed -    
Visibility 8 miles    
Events Fog , Rain    
T = Trace of Precipitation, MM = Missing Value Source: NWS Daily Summary

Daily Weather History Graph

Daily Weather History Graph

Search for Another Location

Airport:

Trip Planner

Search our weather history database for the weather conditions in past years. The results will help you decide how hot, cold, wet, or windy it might be!

Date:

Astronomy

Feb. 03, 2013 Rise Set
Actual Time 6:35 AM CST 5:24 PM CST
Civil Twilight 6:10 AM CST 5:49 PM CST
Nautical Twilight 5:42 AM CST 6:18 PM CST
Astronomical Twilight 5:13 AM CST 6:46 PM CST
Moon 12:02 AM CST (2/3) 11:03 AM CST (2/3)
Length of Visible Light 11h 38m
Length of Day
10h 48m
Waning Gibbous, 48% of the Moon is Illuminated
Feb 3
Waning Gibbous
Feb 10
New
Feb 17
First Quarter
Feb 25
Full
Mar 4
Last Quarter

Hourly Weather History & Observations

Time (CST) Temp. Windchill Dew Point Humidity Pressure Visibility Wind Dir Wind Speed Gust Speed Precip Events Conditions
12:58 AM 53.4 °F - 46.4 °F 77% 30.18 in 10.0 mi West 2.3 mph - N/A   Partly Cloudy
1:29 AM 48.2 °F - 42.8 °F 82% 30.19 in 10.0 mi NNW 12.7 mph - N/A Rain Light Rain
1:58 AM 49.1 °F - 46.2 °F 90% 30.19 in 10.0 mi North 2.3 mph - 0.02 in Rain Light Rain
2:04 AM 48.2 °F - 46.4 °F 93% 30.19 in 10.0 mi North 1.2 mph - N/A   Mostly Cloudy
2:21 AM 48.2 °F - 46.4 °F 93% 30.20 in 10.0 mi North 1.2 mph - N/A Rain Light Rain
2:48 AM 50.0 °F - 48.2 °F 94% 30.19 in 10.0 mi NNW 2.3 mph - N/A   Overcast
2:58 AM 50.0 °F - 47.8 °F 92% 30.19 in 10.0 mi NNW 3.5 mph - 0.02 in   Overcast
3:28 AM 48.2 °F - 46.4 °F 93% 30.19 in 10.0 mi NW 3.5 mph - N/A   Scattered Clouds
3:58 AM 48.0 °F - 46.4 °F 94% 30.19 in 10.0 mi NW 2.3 mph - N/A   Scattered Clouds
4:58 AM 45.7 °F 43.4 °F 43.9 °F 93% 30.20 in 10.0 mi North 4.6 mph - N/A   Clear
5:38 AM 42.8 °F - 41.0 °F 93% 30.20 in 1.0 mi North 2.3 mph - N/A   Clear
5:43 AM 42.8 °F - 41.0 °F 93% 30.20 in 0.5 mi Calm Calm - N/A Fog Fog
5:58 AM 41.0 °F - 39.2 °F 93% 30.20 in 1.0 mi NNE 2.3 mph - N/A   Clear
6:08 AM 41.0 °F 38.0 °F 39.2 °F 93% 30.21 in 1.2 mi NNE 4.6 mph - N/A   Clear
6:13 AM 42.8 °F 40.1 °F 41.0 °F 93% 30.21 in 5.0 mi NNE 4.6 mph - N/A   Clear
6:53 AM 41.0 °F 39.0 °F 41.0 °F 100% 30.22 in 2.0 mi North 3.5 mph - N/A   Clear
6:58 AM 41.0 °F 39.0 °F 41.0 °F 100% 30.22 in 2.0 mi North 3.5 mph - 0.01 in   Clear
7:03 AM 41.0 °F 39.0 °F 41.0 °F 100% 30.23 in 5.0 mi North 3.5 mph - N/A   Clear
7:58 AM 46.2 °F 45.0 °F 45.7 °F 98% 30.24 in 10.0 mi North 3.5 mph - N/A   Clear
8:58 AM 50.7 °F - 43.3 °F 76% 30.25 in 10.0 mi Variable 1.2 mph - N/A   Clear
9:58 AM 55.2 °F - 37.9 °F 52% 30.25 in 10.0 mi NNW 4.6 mph - N/A   Partly Cloudy
10:58 AM 59.7 °F - 34.5 °F 39% 30.23 in 10.0 mi NW 10.4 mph - N/A   Partly Cloudy
11:58 AM 61.7 °F - 33.8 °F 35% 30.20 in 10.0 mi WNW 9.2 mph - N/A   Partly Cloudy
12:58 PM 64.6 °F - 31.6 °F 29% 30.15 in 10.0 mi WNW 8.1 mph - N/A   Partly Cloudy
1:58 PM 65.8 °F - 29.3 °F 25% 30.13 in 10.0 mi West 9.2 mph - N/A   Partly Cloudy
2:58 PM 66.6 °F - 29.8 °F 25% 30.12 in 10.0 mi WNW 9.2 mph - N/A   Clear
3:58 PM 65.8 °F - 29.5 °F 26% 30.11 in 10.0 mi WNW 9.2 mph - N/A   Clear
4:58 PM 63.5 °F - 28.4 °F 27% 30.11 in 10.0 mi West 9.2 mph - N/A   Clear
5:58 PM 58.3 °F - 28.8 °F 33% 30.12 in 10.0 mi WSW 3.5 mph - N/A   Clear
6:58 PM 54.3 °F - 39.7 °F 58% 30.13 in 10.0 mi SW 5.8 mph - N/A   Clear
7:58 PM 48.0 °F - 40.1 °F 74% 30.13 in 10.0 mi South 3.5 mph - N/A   Clear
8:58 PM 52.0 °F - 39.2 °F 62% 30.14 in 10.0 mi West 8.1 mph - N/A   Clear
9:58 PM 50.5 °F - 39.0 °F 65% 30.13 in 10.0 mi WSW 5.8 mph - N/A   Clear
10:58 PM 50.4 °F - 40.6 °F 69% 30.13 in 10.0 mi West 5.8 mph - N/A   Clear
11:58 PM 47.1 °F - 40.5 °F 78% 30.12 in 10.0 mi WNW 4.6 mph - N/A   Clear